This demonstration page uses our WeatherBlox Daily Observations layout. Learn more.

Left ArrowRight Arrow

Hourly Observations for March 6, 2019

Temp ( °F °C ) Dew Point ( °F °C ) Humidity (%) Winds ( mph kmh ) Pressure ( in mb ) Visibility ( mi km ) Precip ( " mm )
12:57 am 00:57 Mostly Clear 11 -11.7 5 -15 77 77 SW 6 9 30.43 1030 10 16 0.00 0.00
1:57 am 01:57 Cloudy 7 -13.9 2 -16.7 80 80 WSW 6 9 30.42 1030 10 16 0.00 0.00
2:57 am 02:57 Cloudy 10 -12.2 4 -15.6 76 76 SW 6 9 30.38 1029 10 16 0.00 0.00
3:57 am 03:57 Mostly Cloudy 8 -13.3 3 -16.1 80 80 SSW 5 7 30.37 1028 10 16 0.00 0.00
4:57 am 04:57 Clear 7 -13.9 3 -16.1 84 84 S 3 6 30.35 1028 10 16 0.00 0.00
5:57 am 05:57 Clear 8 -13.3 3 -16.1 80 80 SW 3 6 30.34 1027 10 16 0.00 0.00
6:57 am 06:57 Clear 3 -16.1 0 -17.8 87 87 Calm 30.33 1027 10 16 0.00 0.00
7:57 am 07:57 Sunny 5 -15 1 -17.2 83 83 S 3 6 30.33 1027 10 16 0.00 0.00
8:57 am 08:57 Sunny 12 -11.1 6 -14.4 77 77 SE 5 7 30.34 1028 10 16 0.00 0.00
9:57 am 09:57 Sunny 16 -8.9 8 -13.3 71 71 SE 3 6 30.33 1027 10 16 0.00 0.00
10:57 am 10:57 Cloudy 20 -6.7 12 -11.1 71 71 ESE 8 13 30.28 1025 10 16 0.00 0.00
11:57 am 11:57 Cloudy 23 -5 14 -10 68 68 SE 7 11 30.27 1025 10 16 0.00 0.00
12:57 pm 12:57 Cloudy 25 -3.9 16 -8.9 69 69 SSE 10 17 30.24 1024 10 16 0.00 0.00
1:57 pm 13:57 Cloudy 26 -3.3 16 -8.9 66 66 S 12 19 30.22 1023 10 16 0.00 0.00
2:57 pm 14:57 Cloudy with Light Snow 26 -3.3 17 -8.3 69 69 SSE 10 17 30.19 1022 10 16 0.00 0.03
3:57 pm 15:57 Cloudy 26 -3.3 18 -7.8 71 71 SE 9 15 30.19 1023 10 16 0.00 0.03
4:57 pm 16:57 Cloudy 26 -3.3 19 -7.2 75 75 ESE 7 11 30.19 1023 10 16 0.00 0.00
5:57 pm 17:57 Mostly Cloudy 26 -3.3 20 -6.7 78 78 ENE 3 6 30.22 1023 10 16 0.00 0.00
6:57 pm 18:57 Partly Cloudy 25 -3.9 21 -6.1 85 85 E 8 13 30.23 1024 10 16 0.00 0.00
7:57 pm 19:57 Cloudy 25 -3.9 21 -6.1 85 85 ENE 8 13 30.23 1024 10 16 0.00 0.00
8:57 pm 20:57 Cloudy with Light Snow 25 -3.9 21 -6.1 85 85 E 10 17 30.22 1023 8 13 0.00 0.03
9:27 pm 21:27 Cloudy with Light Snow 25 -4 21 -6 86 86 ENE 12 19 30.25 1024 3 4 0.00 0.03
9:41 pm 21:41 Cloudy with Light Snow 25 -4 21 -6 86 86 ENE 10 17 30.26 1025 3 5 0.00 0.00
9:57 pm 21:57 Cloudy with Light Snow 25 -3.9 23 -5 92 92 NE 13 20 30.21 1023 3 4 0.00 0.03
10:12 pm 22:12 Cloudy with Light Snow 25 -4 23 -5 93 93 ENE 14 22 30.25 1024 2 3 0.00 0.03
10:23 pm 22:23 Cloudy with Light Snow 25 -4 23 -5 93 93 ENE 13 20 30.26 1025 2 3 0.00 0.03
10:57 pm 22:57 Cloudy with Light Snow 24 -4.4 23 -5 96 96 E 16 26 30.18 1022 4 6 0.00 0.03
10:59 pm 22:59 Cloudy with Light Snow 25 -4 23 -5 93 93 E 17 28 30.23 1024 5 8 0.00 0.00
11:14 pm 23:14 Cloudy with Light Snow 25 -4 23 -5 93 93 E 18 30 30.22 1023 6 10 0.00 0.00
11:26 pm 23:26 Cloudy with Light Snow 25 -4 23 -5 93 93 E 14 22 30.24 1024 6 10 0.00 0.00
11:48 pm 23:48 Cloudy with Light Snow 25 -4 23 -5 93 93 ENE 14 22 30.23 1024 8 13 0.00 0.00
11:57 pm 23:57 Cloudy with Light Snow 24 -4.4 23 -5 96 96 ENE 15 24 30.16 1021 8 13 0.00 0.03

Powered by AerisWeather